Вернуться в каталог

STARLINK-3882

АктивенСвязьVLEO
NORAD 52475·PAYLOAD·🇺🇸 United States

Запущен May 6, 2022 с Cape Canaveral Space Force Station

Loading…

Ближайшие Пролёты (ближайшие 24 часа)

TLE

СвежийSource: CelesTrak SupGP

Эпоха: Sep 14, 2026, 21:12 UTC

1 52475C 22049AA  26257.88381944  .00020230  00000+0  59777-3 0  2578
2 52475  53.1579 279.6274 0001200  73.8782 118.6108 15.34376456    10

Отслеживайте STARLINK-3882 в реальном времени с AllMySat

Download on the App Store